sat.trackr.live / text

‹ back to catalog

STARLINK-34187

NORAD 63956 · 2025-099E

PAYLOAD ACTIVE UNKNOWN

§ Identity

Operator
Country
US
Launch date
2025-05-13
Launch site
AFETR
Launch vehicle
Mass (kg)
RCS (m²)

Purposes: comms

External: N2YO · Heavens-Above · Gunter

§ Orbital elements

Epoch: 2026-05-25T04:38:53.009376Z

Period
94.27 min
Inclination
43.0007°
Eccentricity
0.0001178
Mean motion
15.27583715 rev/d
Perigee alt
482.2 km
Apogee alt
483.8 km
Semi-major
6,861.2 km
B*
6.6954e-4
RAAN
104.4259°
Arg perigee
265.7361°
Mean anomaly
94.3356°
Rev number
5,903

§ Raw data

STARLINK-341871 63956U 25099E   26145.19366909  .00018210  00000+0  66954-3 0  99992 63956  43.0007 104.4259 0001178 265.7361  94.3356 15.27583715 59038

JSON: /api/v1/satellites/63956 · /tle

For live sub-satellite position, see the globe view (requires WebGL).

§ Visibility from observer

Set your observer location to see the next 7 days of passes ≥ 10°. The values pass through the URL so the page stays shareable.

No JS? Fill the form by hand. The geolocation button needs JavaScript.